Meteo orario Abay (Saryagashskiy rayon)

Oggi, 20 Giugno, Domenica

Tempo Temperatura Precipitazioni Vento Pressione Umidità
00:00 +26°C° 0 mm 5 m/s 725 mm Hg 28%
01:00 +25°C° 0 mm 4 m/s 725 mm Hg 28%
02:00 +23°C° 0 mm 4 m/s 725 mm Hg 28%
03:00 +22°C° 0 mm 4 m/s 725 mm Hg 28%
04:00 +21°C° 0 mm 4 m/s 726 mm Hg 27%
05:00 +20°C° 0 mm 4 m/s 726 mm Hg 27%
06:00 +22°C° 0 mm 4 m/s 726 mm Hg 25%
07:00 +25°C° 0 mm 4 m/s 726 mm Hg 24%
08:00 +26°C° 0 mm 4 m/s 726 mm Hg 23%
09:00 +28°C° 0 mm 4 m/s 726 mm Hg 21%
10:00 +30°C° 0 mm 3 m/s 726 mm Hg 19%
11:00 +33°C° 0 mm 3 m/s 727 mm Hg 17%
12:00 +34°C° 0 mm 4 m/s 726 mm Hg 16%
13:00 +35°C° 0 mm 4 m/s 726 mm Hg 14%
14:00 +37°C° 0 mm 5 m/s 726 mm Hg 12%
15:00 +37°C° 0 mm 5 m/s 725 mm Hg 12%
16:00 +38°C° 0 mm 6 m/s 725 mm Hg 12%
17:00 +38°C° 0 mm 7 m/s 725 mm Hg 12%
18:00 +35°C° 0 mm 7 m/s 725 mm Hg 13%
19:00 +33°C° 0 mm 6 m/s 725 mm Hg 15%
20:00 +30°C° 0 mm 6 m/s 725 mm Hg 17%
21:00 +28°C° 0 mm 6 m/s 725 mm Hg 18%
22:00 +26°C° 0 mm 5 m/s 726 mm Hg 19%
23:00 +25°C° 0 mm 5 m/s 726 mm Hg 21%

Domani, 21 Giugno, Lunedi

Tempo Temperatura Precipitazioni Vento Pressione Umidità
00:00 +22°C° 0 mm 4 m/s 726 mm Hg 22%
01:00 +21°C° 0 mm 3 m/s 726 mm Hg 23%
02:00 +20°C° 0 mm 3 m/s 726 mm Hg 24%
03:00 +20°C° 0 mm 3 m/s 726 mm Hg 26%
04:00 +19°C° 0 mm 2 m/s 726 mm Hg 27%
05:00 +18°C° 0 mm 2 m/s 726 mm Hg 29%
06:00 +20°C° 0 mm 2 m/s 727 mm Hg 26%
07:00 +23°C° 0 mm 2 m/s 727 mm Hg 24%
08:00 +25°C° 0 mm 2 m/s 728 mm Hg 21%
09:00 +27°C° 0 mm 2 m/s 728 mm Hg 19%
10:00 +29°C° 0 mm 2 m/s 728 mm Hg 16%
11:00 +31°C° 0 mm 2 m/s 728 mm Hg 14%
12:00 +34°C° 0 mm 3 m/s 728 mm Hg 12%
13:00 +35°C° 0 mm 3 m/s 728 mm Hg 10%
14:00 +37°C° 0 mm 4 m/s 727 mm Hg 8%
15:00 +37°C° 0 mm 4 m/s 727 mm Hg 8%
16:00 +37°C° 0 mm 5 m/s 727 mm Hg 8%
17:00 +38°C° 0 mm 6 m/s 727 mm Hg 8%
18:00 +35°C° 0 mm 5 m/s 727 mm Hg 12%
19:00 +33°C° 0 mm 5 m/s 727 mm Hg 16%
20:00 +30°C° 0 mm 4 m/s 727 mm Hg 20%
21:00 +29°C° 0 mm 3 m/s 727 mm Hg 22%
22:00 +28°C° 0 mm 3 m/s 727 mm Hg 25%
23:00 +27°C° 0 mm 2 m/s 727 mm Hg 27%

Dopodomani, 22 Giugno, Martedi

Tempo Temperatura Precipitazioni Vento Pressione Umidità
00:00 +26°C° 0 mm 2 m/s 727 mm Hg 28%
01:00 +26°C° 0 mm 2 m/s 727 mm Hg 29%
02:00 +25°C° 0 mm 2 m/s 727 mm Hg 30%
03:00 +24°C° 0 mm 1 m/s 727 mm Hg 31%
04:00 +24°C° 0 mm 1 m/s 727 mm Hg 31%
05:00 +23°C° 0 mm 1 m/s 727 mm Hg 32%
06:00 +25°C° 0 mm 1 m/s 727 mm Hg 29%
07:00 +27°C° 0 mm 1 m/s 728 mm Hg 26%
08:00 +27°C° 0 mm 0 m/s 728 mm Hg 23%
09:00 +31°C° 0 mm 1 m/s 728 mm Hg 22%
10:00 +34°C° 0 mm 2 m/s 728 mm Hg 21%
11:00 +36°C° 0 mm 3 m/s 728 mm Hg 20%
12:00 +36°C° 0 mm 4 m/s 728 mm Hg 18%
13:00 +37°C° 0 mm 4 m/s 727 mm Hg 16%
14:00 +39°C° 0 mm 5 m/s 727 mm Hg 14%
15:00 +39°C° 0 mm 6 m/s 727 mm Hg 13%
16:00 +39°C° 0 mm 6 m/s 727 mm Hg 12%
17:00 +38°C° 0 mm 7 m/s 727 mm Hg 11%
18:00 +35°C° 0 mm 7 m/s 727 mm Hg 13%
19:00 +33°C° 0 mm 7 m/s 727 mm Hg 15%
20:00 +31°C° 0 mm 8 m/s 727 mm Hg 16%
21:00 +28°C° 0 mm 7 m/s 727 mm Hg 19%
22:00 +26°C° 0 mm 5 m/s 727 mm Hg 21%
23:00 +25°C° 0 mm 4 m/s 727 mm Hg 24%

23 Giugno, Mercoledi

Tempo Temperatura Precipitazioni Vento Pressione Umidità
00:00 +23°C° 0 mm 4 m/s 727 mm Hg 25%
01:00 +22°C° 0 mm 3 m/s 727 mm Hg 27%
02:00 +21°C° 0 mm 3 m/s 726 mm Hg 28%
03:00 +20°C° 0 mm 2 m/s 727 mm Hg 30%
04:00 +19°C° 0 mm 2 m/s 727 mm Hg 31%
05:00 +18°C° 0 mm 2 m/s 727 mm Hg 33%
06:00 +20°C° 0 mm 2 m/s 727 mm Hg 30%
07:00 +23°C° 0 mm 2 m/s 728 mm Hg 27%
08:00 +25°C° 0 mm 2 m/s 728 mm Hg 24%
09:00 +27°C° 0 mm 2 m/s 728 mm Hg 21%
10:00 +29°C° 0 mm 2 m/s 728 mm Hg 19%
11:00 +31°C° 0 mm 2 m/s 728 mm Hg 16%
12:00 +34°C° 0 mm 2 m/s 728 mm Hg 14%
13:00 +36°C° 0 mm 2 m/s 728 mm Hg 12%
14:00 +36°C° 0 mm 1 m/s 727 mm Hg 10%
15:00 +38°C° 0 mm 2 m/s 727 mm Hg 9%
16:00 +38°C° 0 mm 2 m/s 727 mm Hg 9%
17:00 +38°C° 0 mm 3 m/s 726 mm Hg 8%
18:00 +36°C° 0 mm 4 m/s 726 mm Hg 10%
19:00 +34°C° 0 mm 4 m/s 726 mm Hg 12%
20:00 +32°C° 0 mm 5 m/s 726 mm Hg 14%
21:00 +30°C° 0 mm 4 m/s 726 mm Hg 16%
22:00 +28°C° 0 mm 4 m/s 727 mm Hg 18%
23:00 +26°C° 0 mm 4 m/s 727 mm Hg 20%

24 Giugno, Giovedi

Tempo Temperatura Precipitazioni Vento Pressione Umidità
00:00 +25°C° 0 mm 3 m/s 727 mm Hg 21%
01:00 +24°C° 0 mm 3 m/s 726 mm Hg 23%
02:00 +23°C° 0 mm 2 m/s 726 mm Hg 24%
03:00 +21°C° 0 mm 2 m/s 726 mm Hg 25%
04:00 +21°C° 0 mm 2 m/s 726 mm Hg 26%
05:00 +20°C° 0 mm 2 m/s 727 mm Hg 27%
06:00 +23°C° 0 mm 2 m/s 727 mm Hg 24%
07:00 +25°C° 0 mm 2 m/s 727 mm Hg 22%
08:00 +27°C° 0 mm 2 m/s 728 mm Hg 19%
09:00 +30°C° 0 mm 3 m/s 728 mm Hg 18%
10:00 +33°C° 0 mm 3 m/s 728 mm Hg 17%
11:00 +36°C° 0 mm 4 m/s 728 mm Hg 16%
12:00 +37°C° 0 mm 4 m/s 728 mm Hg 15%
13:00 +38°C° 0 mm 4 m/s 727 mm Hg 15%
14:00 +40°C° 0 mm 5 m/s 727 mm Hg 15%
15:00 +40°C° 0 mm 5 m/s 727 mm Hg 15%
16:00 +40°C° 0 mm 5 m/s 726 mm Hg 15%
17:00 +40°C° 0 mm 5 m/s 726 mm Hg 16%
18:00 +38°C° 0 mm 6 m/s 726 mm Hg 18%
19:00 +35°C° 0 mm 7 m/s 726 mm Hg 20%
20:00 +33°C° 0 mm 8 m/s 726 mm Hg 22%
21:00 +32°C° 0 mm 7 m/s 726 mm Hg 25%
22:00 +29°C° 0 mm 6 m/s 726 mm Hg 29%
23:00 +27°C° 0 mm 5 m/s 726 mm Hg 32%

25 Giugno, Venerdi

Tempo Temperatura Precipitazioni Vento Pressione Umidità
00:00 +26°C° 0 mm 4 m/s 726 mm Hg 34%
01:00 +25°C° 0 mm 3 m/s 725 mm Hg 35%
02:00 +24°C° 0 mm 3 m/s 725 mm Hg 37%
03:00 +22°C° 0 mm 3 m/s 725 mm Hg 36%
04:00 +21°C° 0 mm 2 m/s 725 mm Hg 36%
05:00 +21°C° 0 mm 2 m/s 725 mm Hg 36%
06:00 +23°C° 0 mm 2 m/s 725 mm Hg 33%
07:00 +25°C° 0 mm 2 m/s 725 mm Hg 30%
08:00 +27°C° 0 mm 2 m/s 726 mm Hg 27%
09:00 +29°C° 0 mm 2 m/s 725 mm Hg 25%
10:00 +31°C° 0 mm 2 m/s 725 mm Hg 22%
11:00 +34°C° 0 mm 2 m/s 725 mm Hg 20%
12:00 +36°C° 0 mm 2 m/s 725 mm Hg 18%
13:00 +37°C° 0 mm 2 m/s 724 mm Hg 16%
14:00 +39°C° 0 mm 2 m/s 724 mm Hg 14%
15:00 +39°C° 0 mm 3 m/s 723 mm Hg 13%
16:00 +39°C° 0 mm 3 m/s 723 mm Hg 13%
17:00 +40°C° 0 mm 4 m/s 722 mm Hg 12%
18:00 +37°C° 0 mm 4 m/s 722 mm Hg 13%
19:00 +35°C° 0 mm 5 m/s 722 mm Hg 14%
20:00 +33°C° 0 mm 5 m/s 722 mm Hg 15%
21:00 +30°C° 0 mm 5 m/s 722 mm Hg 17%
22:00 +29°C° 0 mm 4 m/s 722 mm Hg 19%
23:00 +27°C° 0 mm 3 m/s 722 mm Hg 20%
Mostrare altro

Abbiamo bisogno del tuo consenso

Meteoprog e i nostri fornitori di servizi possono memorizzare e accedere a dati personali come cookie, identificatori di dispositivi o altre tecnologie simili sul tuo dispositivo e possono elaborare tali dati per personalizzare i contenuti e gli annunci, nonché fornire funzionalità dei social media e analizzarne il traffico.

  • Archiviare e/o accedere alle informazioni sul tuo dispositivo

    Cookie, identificatori di dispositivi o altre informazioni possono essere memorizzati o resi accessibili sul tuo dispositivo per le finalità sopra indicate.

  • Annunci e contenuti personalizzati, misurazione di annunci e contenuti, approfondimenti sul pubblico e sviluppo di prodotti

    Gli annunci e i contenuti possono essere personalizzati in base a un profilo. È possibile aggiungere più dati per personalizzare meglio annunci e contenuti. È possibile misurare il rendimento degli annunci e dei contenuti. È possibile ricavare informazioni sul pubblico che ha visto gli annunci e i contenuti. Tali dati possono essere utilizzati per sviluppare o migliorare l'esperienza, i sistemi e il software dell'utente.

Cliccando su “Accetto”, acconsenti all'uso di cookie, identificatori di dispositivo, web beacon o altre tecnologie simili. Puoi modificare le impostazioni nel browser del tuo dispositivo.

Per determinati scopi, è possibile fare affidamento su interessi legali, piuttosto che sul consenso. Puoi approfondire questo argomento consultando la nostra Informativa sulla privacy e sui cookie.